Year,Month,Day,Hour,Minute,Value (Times are PST for temperature in C)
2019,03,30,00,00,6.30
2019,03,30,00,01,6.30
2019,03,30,00,02,6.30
2019,03,30,00,03,6.20
2019,03,30,00,04,6.20
2019,03,30,00,05,6.20
2019,03,30,00,06,6.20
2019,03,30,00,07,6.20
2019,03,30,00,08,6.10
2019,03,30,00,09,6.10
2019,03,30,00,10,6.10
2019,03,30,00,11,6.10
2019,03,30,00,12,6.10
2019,03,30,00,13,6.10
2019,03,30,00,14,6.00
2019,03,30,00,15,6.00
2019,03,30,00,16,6.00
2019,03,30,00,17,6.00
2019,03,30,00,18,5.90
2019,03,30,00,19,5.90
2019,03,30,00,20,5.90
2019,03,30,00,21,5.90
2019,03,30,00,22,5.90
2019,03,30,00,23,5.90
2019,03,30,00,24,5.90
2019,03,30,00,25,5.90
2019,03,30,00,26,5.90
2019,03,30,00,27,5.80
2019,03,30,00,28,5.80
2019,03,30,00,29,5.80
2019,03,30,00,30,5.80
2019,03,30,00,31,5.80
2019,03,30,00,32,5.70
2019,03,30,00,33,5.70
2019,03,30,00,34,5.70
2019,03,30,00,35,5.70
2019,03,30,00,36,5.70
2019,03,30,00,37,5.70
2019,03,30,00,38,5.70
2019,03,30,00,39,5.70
2019,03,30,00,40,5.70
2019,03,30,00,41,5.70
2019,03,30,00,42,5.70
2019,03,30,00,43,5.70
2019,03,30,00,44,5.70
2019,03,30,00,45,5.70
2019,03,30,00,46,5.60
2019,03,30,00,47,5.60
2019,03,30,00,48,5.60
2019,03,30,00,49,5.60
2019,03,30,00,50,5.60
2019,03,30,00,51,5.60
2019,03,30,00,52,5.60
2019,03,30,00,53,5.60
2019,03,30,00,54,5.70
2019,03,30,00,55,5.70
2019,03,30,00,56,5.70
2019,03,30,00,57,5.70
2019,03,30,00,58,5.70
2019,03,30,00,59,5.60
2019,03,30,01,00,5.60
2019,03,30,01,01,5.60
2019,03,30,01,02,5.60
2019,03,30,01,03,5.60
2019,03,30,01,04,5.60
2019,03,30,01,05,5.60
2019,03,30,01,06,5.60
2019,03,30,01,07,5.60
2019,03,30,01,08,5.60
2019,03,30,01,09,5.60
2019,03,30,01,10,5.60
2019,03,30,01,11,5.60
2019,03,30,01,12,5.60
2019,03,30,01,13,5.60
2019,03,30,01,14,5.50
2019,03,30,01,15,5.50
2019,03,30,01,16,5.50
2019,03,30,01,17,5.50
2019,03,30,01,18,5.50
2019,03,30,01,19,5.50
2019,03,30,01,20,5.50
2019,03,30,01,21,5.50
2019,03,30,01,22,5.50
2019,03,30,01,23,5.50
2019,03,30,01,24,5.50
2019,03,30,01,25,5.50
2019,03,30,01,26,5.40
2019,03,30,01,27,5.40
2019,03,30,01,28,5.40
2019,03,30,01,29,5.40
2019,03,30,01,30,5.40
2019,03,30,01,31,5.40
2019,03,30,01,32,5.40
2019,03,30,01,33,5.40
2019,03,30,01,34,5.30
2019,03,30,01,35,5.30
2019,03,30,01,36,5.30
2019,03,30,01,37,5.30
2019,03,30,01,38,5.30
2019,03,30,01,39,5.30
2019,03,30,01,40,5.30
2019,03,30,01,41,5.30
2019,03,30,01,42,5.30
2019,03,30,01,43,5.20
2019,03,30,01,44,5.20
2019,03,30,01,45,5.20
2019,03,30,01,46,5.20
2019,03,30,01,47,5.20
2019,03,30,01,48,5.20
2019,03,30,01,49,5.20
2019,03,30,01,50,5.20
2019,03,30,01,51,5.10
2019,03,30,01,52,5.10
2019,03,30,01,53,5.10
2019,03,30,01,54,5.00
2019,03,30,01,55,5.00
2019,03,30,01,56,4.90
2019,03,30,01,57,4.90
2019,03,30,01,58,4.80
2019,03,30,01,59,4.80
2019,03,30,02,00,4.80
2019,03,30,02,01,4.70
2019,03,30,02,02,4.70
2019,03,30,02,03,4.70
2019,03,30,02,04,4.70
2019,03,30,02,05,4.70
2019,03,30,02,06,4.70
2019,03,30,02,07,4.70
2019,03,30,02,08,4.70
2019,03,30,02,09,4.70
2019,03,30,02,10,4.70
2019,03,30,02,11,4.70
2019,03,30,02,12,4.60
2019,03,30,02,13,4.60
2019,03,30,02,14,4.60
2019,03,30,02,15,4.60
2019,03,30,02,16,4.60
2019,03,30,02,17,4.60
2019,03,30,02,18,4.60
2019,03,30,02,19,4.60
2019,03,30,02,20,4.60
2019,03,30,02,21,4.60
2019,03,30,02,22,4.60
2019,03,30,02,23,4.60
2019,03,30,02,24,4.60
2019,03,30,02,25,4.60
2019,03,30,02,26,4.50
2019,03,30,02,27,4.50
2019,03,30,02,28,4.50
2019,03,30,02,29,4.50
2019,03,30,02,30,4.50
2019,03,30,02,31,4.50
2019,03,30,02,32,4.50
2019,03,30,02,33,4.40
2019,03,30,02,34,4.40
2019,03,30,02,35,4.40
2019,03,30,02,36,4.40
2019,03,30,02,37,4.40
2019,03,30,02,38,4.40
2019,03,30,02,39,4.40
2019,03,30,02,40,4.40
2019,03,30,02,41,4.40
2019,03,30,02,42,4.40
2019,03,30,02,43,4.30
2019,03,30,02,44,4.30
2019,03,30,02,45,4.30
2019,03,30,02,46,4.30
2019,03,30,02,47,4.30
2019,03,30,02,48,4.30
2019,03,30,02,49,4.30
2019,03,30,02,50,4.30
2019,03,30,02,51,4.30
2019,03,30,02,52,4.30
2019,03,30,02,53,4.30
2019,03,30,02,54,4.30
2019,03,30,02,55,4.30
2019,03,30,02,56,4.30
2019,03,30,02,57,4.30
2019,03,30,02,58,4.30
2019,03,30,02,59,4.30
2019,03,30,03,00,4.30
2019,03,30,03,01,4.20
2019,03,30,03,02,4.20
2019,03,30,03,03,4.20
2019,03,30,03,04,4.20
2019,03,30,03,05,4.20
2019,03,30,03,06,4.20
2019,03,30,03,07,4.20
2019,03,30,03,08,4.20
2019,03,30,03,09,4.20
2019,03,30,03,10,4.20
2019,03,30,03,11,4.20
2019,03,30,03,12,4.20
2019,03,30,03,13,4.20
2019,03,30,03,14,4.20
2019,03,30,03,15,4.20
2019,03,30,03,16,4.20
2019,03,30,03,17,4.20
2019,03,30,03,18,4.20
2019,03,30,03,19,4.10
2019,03,30,03,20,4.10
2019,03,30,03,21,4.10
2019,03,30,03,22,4.10
2019,03,30,03,23,4.10
2019,03,30,03,24,4.10
2019,03,30,03,25,4.10
2019,03,30,03,26,4.10
2019,03,30,03,27,4.10
2019,03,30,03,28,4.00
2019,03,30,03,29,4.10
2019,03,30,03,30,4.10
2019,03,30,03,31,4.10
2019,03,30,03,32,4.10
2019,03,30,03,33,4.10
2019,03,30,03,34,4.20
2019,03,30,03,35,4.20
2019,03,30,03,36,4.20
2019,03,30,03,37,4.20
2019,03,30,03,38,4.20
2019,03,30,03,39,4.20
2019,03,30,03,40,4.20
2019,03,30,03,41,4.20
2019,03,30,03,42,4.20
2019,03,30,03,43,4.10
2019,03,30,03,44,4.10
2019,03,30,03,45,4.10
2019,03,30,03,46,4.10
2019,03,30,03,47,4.00
2019,03,30,03,48,4.00
2019,03,30,03,49,4.00
2019,03,30,03,50,4.00
2019,03,30,03,51,4.00
2019,03,30,03,52,4.00
2019,03,30,03,53,4.00
2019,03,30,03,54,4.00
2019,03,30,03,55,4.00
2019,03,30,03,56,4.00
2019,03,30,03,57,4.00
2019,03,30,03,58,4.00
2019,03,30,03,59,3.90
2019,03,30,04,00,3.90
2019,03,30,04,01,3.90
2019,03,30,04,02,3.90
2019,03,30,04,03,3.90
2019,03,30,04,04,3.90
2019,03,30,04,05,3.90
2019,03,30,04,06,3.90
2019,03,30,04,07,3.90
2019,03,30,04,08,3.90
2019,03,30,04,09,3.80
2019,03,30,04,10,3.80
2019,03,30,04,11,3.80
2019,03,30,04,12,3.80
2019,03,30,04,13,3.80
2019,03,30,04,14,3.80
2019,03,30,04,15,3.80
2019,03,30,04,16,3.80
2019,03,30,04,17,3.80
2019,03,30,04,18,3.80
2019,03,30,04,19,3.70
2019,03,30,04,20,3.70
2019,03,30,04,21,3.70
2019,03,30,04,22,3.70
2019,03,30,04,23,3.70
2019,03,30,04,24,3.70
2019,03,30,04,25,3.70
2019,03,30,04,26,3.70
2019,03,30,04,27,3.70
2019,03,30,04,28,3.80
2019,03,30,04,29,3.70
2019,03,30,04,30,3.70
2019,03,30,04,31,3.70
2019,03,30,04,32,3.70
2019,03,30,04,33,3.70
2019,03,30,04,34,3.70
2019,03,30,04,35,3.70
2019,03,30,04,36,3.70
2019,03,30,04,37,3.70
2019,03,30,04,38,3.70
2019,03,30,04,39,3.70
2019,03,30,04,40,3.70
2019,03,30,04,41,3.80
2019,03,30,04,42,3.80
2019,03,30,04,43,3.80
2019,03,30,04,44,3.80
2019,03,30,04,45,3.70
2019,03,30,04,46,3.70
2019,03,30,04,47,3.70
2019,03,30,04,48,3.70
2019,03,30,04,49,3.60
2019,03,30,04,50,3.60
2019,03,30,04,51,3.60
2019,03,30,04,52,3.60
2019,03,30,04,53,3.50
2019,03,30,04,54,3.50
2019,03,30,04,55,3.50
2019,03,30,04,56,3.50
2019,03,30,04,57,3.40
2019,03,30,04,58,3.40
2019,03,30,04,59,3.40
2019,03,30,05,00,3.40
2019,03,30,05,01,3.40
2019,03,30,05,02,3.40
2019,03,30,05,03,3.40
2019,03,30,05,04,3.40
2019,03,30,05,05,3.40
2019,03,30,05,06,3.40
2019,03,30,05,07,3.40
2019,03,30,05,08,3.40
2019,03,30,05,09,3.40
2019,03,30,05,10,3.40
2019,03,30,05,11,3.30
2019,03,30,05,12,3.30
2019,03,30,05,13,3.30
2019,03,30,05,14,3.30
2019,03,30,05,15,3.30
2019,03,30,05,16,3.30
2019,03,30,05,17,3.30
2019,03,30,05,18,3.30
2019,03,30,05,19,3.30
2019,03,30,05,20,3.30
2019,03,30,05,21,3.30
2019,03,30,05,22,3.30
2019,03,30,05,23,3.30
2019,03,30,05,24,3.30
2019,03,30,05,25,3.30
2019,03,30,05,26,3.30
2019,03,30,05,27,3.30
2019,03,30,05,28,3.30
2019,03,30,05,29,3.30
2019,03,30,05,30,3.30
2019,03,30,05,31,3.30
2019,03,30,05,32,3.30
2019,03,30,05,33,3.30
2019,03,30,05,34,3.30
2019,03,30,05,35,3.30
2019,03,30,05,36,3.30
2019,03,30,05,37,3.30
2019,03,30,05,38,3.30
2019,03,30,05,39,3.30
2019,03,30,05,40,3.30
2019,03,30,05,41,3.30
2019,03,30,05,42,3.30
2019,03,30,05,43,3.30
2019,03,30,05,44,3.20
2019,03,30,05,45,3.20
2019,03,30,05,46,3.20
2019,03,30,05,47,3.20
2019,03,30,05,48,3.20
2019,03,30,05,49,3.20
2019,03,30,05,50,3.20
2019,03,30,05,51,3.20
2019,03,30,05,52,3.20
2019,03,30,05,53,3.20
2019,03,30,05,54,3.20
2019,03,30,05,55,3.10
2019,03,30,05,56,3.10
2019,03,30,05,57,3.10
2019,03,30,05,58,3.10
2019,03,30,05,59,3.10
2019,03,30,06,00,3.10
2019,03,30,06,01,3.10
2019,03,30,06,02,3.10
2019,03,30,06,03,3.10
2019,03,30,06,04,3.10
2019,03,30,06,05,3.10
2019,03,30,06,06,3.00
2019,03,30,06,07,3.00
2019,03,30,06,08,3.00
2019,03,30,06,09,3.00
2019,03,30,06,10,3.00
2019,03,30,06,11,3.00
2019,03,30,06,12,3.00
2019,03,30,06,13,2.90
2019,03,30,06,14,2.90
2019,03,30,06,15,2.90
2019,03,30,06,16,2.90
2019,03,30,06,17,2.90
2019,03,30,06,18,2.90
2019,03,30,06,19,2.90
2019,03,30,06,20,2.90
2019,03,30,06,21,2.90
2019,03,30,06,22,2.80
2019,03,30,06,23,2.80
2019,03,30,06,24,2.80
2019,03,30,06,25,2.80
2019,03,30,06,26,2.80
2019,03,30,06,27,2.70
2019,03,30,06,28,2.70
2019,03,30,06,29,2.70
2019,03,30,06,30,2.70
2019,03,30,06,31,2.70
2019,03,30,06,32,2.70
2019,03,30,06,33,2.70
2019,03,30,06,34,2.70
2019,03,30,06,35,2.70
2019,03,30,06,36,2.70
2019,03,30,06,37,2.70
2019,03,30,06,38,2.70
2019,03,30,06,39,2.70
2019,03,30,06,40,2.70
2019,03,30,06,41,2.70
2019,03,30,06,42,2.70
2019,03,30,06,43,2.70
2019,03,30,06,44,2.70
2019,03,30,06,45,2.70
2019,03,30,06,46,2.70
2019,03,30,06,47,2.70
2019,03,30,06,48,2.70
2019,03,30,06,49,2.70
2019,03,30,06,50,2.70
2019,03,30,06,51,2.70
2019,03,30,06,52,2.70
2019,03,30,06,53,2.60
2019,03,30,06,54,2.60
2019,03,30,06,55,2.60
2019,03,30,06,56,2.60
2019,03,30,06,57,2.60
2019,03,30,06,58,2.70
2019,03,30,06,59,2.70
2019,03,30,07,00,2.70
2019,03,30,07,01,2.70
2019,03,30,07,02,2.70
2019,03,30,07,03,2.70
2019,03,30,07,04,2.70
2019,03,30,07,05,2.70
2019,03,30,07,06,2.70
2019,03,30,07,07,2.70
2019,03,30,07,08,2.70
2019,03,30,07,09,2.70
2019,03,30,07,10,2.70
2019,03,30,07,11,2.70
2019,03,30,07,12,2.70
2019,03,30,07,13,2.70
2019,03,30,07,14,2.70
2019,03,30,07,15,2.70
2019,03,30,07,16,2.70
2019,03,30,07,17,2.70
2019,03,30,07,18,2.70
2019,03,30,07,19,2.70
2019,03,30,07,20,2.70
2019,03,30,07,21,2.70
2019,03,30,07,22,2.70
2019,03,30,07,23,2.70
2019,03,30,07,24,2.80
2019,03,30,07,25,2.80
2019,03,30,07,26,2.80
2019,03,30,07,27,2.80
2019,03,30,07,28,2.90
2019,03,30,07,29,2.90
2019,03,30,07,30,2.90
2019,03,30,07,31,2.90
2019,03,30,07,32,3.00
2019,03,30,07,33,3.00
2019,03,30,07,34,3.10
2019,03,30,07,35,3.10
2019,03,30,07,36,3.20
2019,03,30,07,37,3.20
2019,03,30,07,38,3.30
2019,03,30,07,39,3.30
2019,03,30,07,40,3.20
2019,03,30,07,41,3.20
2019,03,30,07,42,3.20
2019,03,30,07,43,3.20
2019,03,30,07,44,3.30
2019,03,30,07,45,3.30
2019,03,30,07,46,3.40
2019,03,30,07,47,3.40
2019,03,30,07,48,3.50
2019,03,30,07,49,3.60
2019,03,30,07,50,3.60
2019,03,30,07,51,3.70
2019,03,30,07,52,3.70
2019,03,30,07,53,3.70
2019,03,30,07,54,3.70
2019,03,30,07,55,3.80
2019,03,30,07,56,3.80
2019,03,30,07,57,3.80
2019,03,30,07,58,3.90
2019,03,30,07,59,3.90
2019,03,30,08,00,3.90
2019,03,30,08,01,3.90
2019,03,30,08,02,4.00
2019,03,30,08,03,4.00
2019,03,30,08,04,4.10
2019,03,30,08,05,4.10
2019,03,30,08,06,4.20
2019,03,30,08,07,4.20
2019,03,30,08,08,4.30
2019,03,30,08,09,4.40
2019,03,30,08,10,4.50
2019,03,30,08,11,4.50
2019,03,30,08,12,4.60
2019,03,30,08,13,4.70
2019,03,30,08,14,4.80
2019,03,30,08,15,4.80
2019,03,30,08,16,4.80
2019,03,30,08,17,4.90
2019,03,30,08,18,5.00
2019,03,30,08,19,5.00
2019,03,30,08,20,5.10
2019,03,30,08,21,5.10
2019,03,30,08,22,5.10
2019,03,30,08,23,5.10
2019,03,30,08,24,5.20
2019,03,30,08,25,5.20
2019,03,30,08,26,5.30
2019,03,30,08,27,5.30
2019,03,30,08,28,5.40
2019,03,30,08,29,5.40
2019,03,30,08,30,5.50
2019,03,30,08,31,5.50
2019,03,30,08,32,5.60
2019,03,30,08,33,5.70
2019,03,30,08,34,5.70
2019,03,30,08,35,5.80
2019,03,30,08,36,5.90
2019,03,30,08,37,5.90
2019,03,30,08,38,6.00
2019,03,30,08,39,6.00
2019,03,30,08,40,6.10
2019,03,30,08,41,6.20
2019,03,30,08,42,6.30
2019,03,30,08,43,6.40
2019,03,30,08,44,6.50
2019,03,30,08,45,6.60
2019,03,30,08,46,6.80
2019,03,30,08,47,6.90
2019,03,30,08,48,7.00
2019,03,30,08,49,7.10
2019,03,30,08,50,7.20
2019,03,30,08,51,7.20
2019,03,30,08,52,7.20
2019,03,30,08,53,7.30
2019,03,30,08,54,7.30
2019,03,30,08,55,7.40
2019,03,30,08,56,7.40
2019,03,30,08,57,7.50
2019,03,30,08,58,7.60
2019,03,30,08,59,7.60
2019,03,30,09,00,7.70
2019,03,30,09,01,7.70
2019,03,30,09,02,7.70
2019,03,30,09,03,7.70
2019,03,30,09,04,7.80
2019,03,30,09,05,7.80
2019,03,30,09,06,7.80
2019,03,30,09,07,7.90
2019,03,30,09,08,7.90
2019,03,30,09,09,7.90
2019,03,30,09,10,7.90
2019,03,30,09,11,8.00
2019,03,30,09,12,8.10
2019,03,30,09,13,8.10
2019,03,30,09,14,8.20
2019,03,30,09,15,8.20
2019,03,30,09,16,8.30
2019,03,30,09,17,8.30
2019,03,30,09,18,8.30
2019,03,30,09,19,8.40
2019,03,30,09,20,8.50
2019,03,30,09,21,8.50
2019,03,30,09,22,8.60
2019,03,30,09,23,8.70
2019,03,30,09,24,8.80
2019,03,30,09,25,8.80
2019,03,30,09,26,8.90
2019,03,30,09,27,9.00
2019,03,30,09,28,9.10
2019,03,30,09,29,9.20
2019,03,30,09,30,9.30
2019,03,30,09,31,9.40
2019,03,30,09,32,9.50
2019,03,30,09,33,9.60
2019,03,30,09,34,9.70
2019,03,30,09,35,9.80
2019,03,30,09,36,10.00
2019,03,30,09,37,10.10
2019,03,30,09,38,10.20
2019,03,30,09,39,10.30
2019,03,30,09,40,10.40
2019,03,30,09,41,10.40
2019,03,30,09,42,10.50
2019,03,30,09,43,10.60
2019,03,30,09,44,10.70
2019,03,30,09,45,10.80
2019,03,30,09,46,10.90
2019,03,30,09,47,11.00
2019,03,30,09,48,11.20
2019,03,30,09,49,11.30
2019,03,30,09,50,11.40
2019,03,30,09,51,11.50
2019,03,30,09,52,11.60
2019,03,30,09,53,11.60
2019,03,30,09,54,11.70
2019,03,30,09,55,11.80
2019,03,30,09,56,12.00
2019,03,30,09,57,12.00
2019,03,30,09,58,12.00
2019,03,30,09,59,12.00
2019,03,30,10,00,12.00
2019,03,30,10,01,12.10
2019,03,30,10,02,12.20
2019,03,30,10,03,12.30
2019,03,30,10,04,12.30
2019,03,30,10,05,12.40
2019,03,30,10,06,12.50
2019,03,30,10,07,12.60
2019,03,30,10,08,12.70
2019,03,30,10,09,12.80
2019,03,30,10,10,12.80
2019,03,30,10,11,12.80
2019,03,30,10,12,12.90
2019,03,30,10,13,13.10
2019,03,30,10,14,13.10
2019,03,30,10,15,13.00
2019,03,30,10,16,13.00
2019,03,30,10,17,13.00
2019,03,30,10,18,13.10
2019,03,30,10,19,13.20
2019,03,30,10,20,13.20
2019,03,30,10,21,13.20
2019,03,30,10,22,13.20
2019,03,30,10,23,13.10
2019,03,30,10,24,13.10
2019,03,30,10,25,13.10
2019,03,30,10,26,13.00
2019,03,30,10,27,13.00
2019,03,30,10,28,12.90
2019,03,30,10,29,12.90
2019,03,30,10,30,12.90
2019,03,30,10,31,12.90
2019,03,30,10,32,13.00
2019,03,30,10,33,13.10
2019,03,30,10,34,13.10
2019,03,30,10,35,13.00
2019,03,30,10,36,12.90
2019,03,30,10,37,12.90
2019,03,30,10,38,12.90
2019,03,30,10,39,12.90
2019,03,30,10,40,12.90
2019,03,30,10,41,13.00
2019,03,30,10,42,13.00
2019,03,30,10,43,13.10
2019,03,30,10,44,13.10
2019,03,30,10,45,13.20
2019,03,30,10,46,13.20
2019,03,30,10,47,13.30
2019,03,30,10,48,13.30
2019,03,30,10,49,13.30
2019,03,30,10,50,13.30
2019,03,30,10,51,13.30
2019,03,30,10,52,13.30
2019,03,30,10,53,13.20
2019,03,30,10,54,13.10
2019,03,30,10,55,13.10
2019,03,30,10,56,13.10
2019,03,30,10,57,13.10
2019,03,30,10,58,13.00
2019,03,30,10,59,13.00
2019,03,30,11,00,12.90
2019,03,30,11,01,12.90
2019,03,30,11,02,12.80
2019,03,30,11,03,12.70
2019,03,30,11,04,12.70
2019,03,30,11,05,12.60
2019,03,30,11,06,12.60
2019,03,30,11,07,12.60
2019,03,30,11,08,12.60
2019,03,30,11,09,12.60
2019,03,30,11,10,12.70
2019,03,30,11,11,12.70
2019,03,30,11,12,12.80
2019,03,30,11,13,12.90
2019,03,30,11,14,12.90
2019,03,30,11,15,12.90
2019,03,30,11,16,13.00
2019,03,30,11,17,13.00
2019,03,30,11,18,13.00
2019,03,30,11,19,13.00
2019,03,30,11,20,13.00
2019,03,30,11,21,13.00
2019,03,30,11,22,13.00
2019,03,30,11,23,13.00
2019,03,30,11,24,13.00
2019,03,30,11,25,13.00
2019,03,30,11,26,13.00
2019,03,30,11,27,13.00
2019,03,30,11,28,13.10
2019,03,30,11,29,13.10
2019,03,30,11,30,13.10
2019,03,30,11,31,13.10
2019,03,30,11,32,13.10
2019,03,30,11,33,13.20
2019,03,30,11,34,13.20
2019,03,30,11,35,13.30
2019,03,30,11,36,13.50
2019,03,30,11,37,13.60
2019,03,30,11,38,13.60
2019,03,30,11,39,13.70
2019,03,30,11,40,13.70
2019,03,30,11,41,13.60
2019,03,30,11,42,13.60
2019,03,30,11,43,13.60
2019,03,30,11,44,13.60
2019,03,30,11,45,13.60
2019,03,30,11,46,13.70
2019,03,30,11,47,13.70
2019,03,30,11,48,13.80
2019,03,30,11,49,13.70
2019,03,30,11,50,13.60
2019,03,30,11,51,13.50
2019,03,30,11,52,13.40
2019,03,30,11,53,13.40
2019,03,30,11,54,13.40
2019,03,30,11,55,13.40
2019,03,30,11,56,13.20
2019,03,30,11,57,13.10
2019,03,30,11,58,13.00
2019,03,30,11,59,12.90
2019,03,30,12,00,12.80
2019,03,30,12,01,12.70
2019,03,30,12,02,12.60
2019,03,30,12,03,12.50
2019,03,30,12,04,12.30
2019,03,30,12,05,12.20
2019,03,30,12,06,12.10
2019,03,30,12,07,12.00
2019,03,30,12,08,11.90
2019,03,30,12,09,11.80
2019,03,30,12,10,11.60
2019,03,30,12,11,11.40
2019,03,30,12,12,11.30
2019,03,30,12,13,11.20
2019,03,30,12,14,11.20
2019,03,30,12,15,11.20
2019,03,30,12,16,11.20
2019,03,30,12,17,11.10
2019,03,30,12,18,11.00
2019,03,30,12,19,10.90
2019,03,30,12,20,11.00
2019,03,30,12,21,11.00
2019,03,30,12,22,11.10
2019,03,30,12,23,11.10
2019,03,30,12,24,11.10
2019,03,30,12,25,11.10
2019,03,30,12,26,11.00
2019,03,30,12,27,11.00
2019,03,30,12,28,11.00
2019,03,30,12,29,11.00
2019,03,30,12,30,11.20
2019,03,30,12,31,11.30
2019,03,30,12,32,11.40
2019,03,30,12,33,11.50
2019,03,30,12,34,11.50
2019,03,30,12,35,11.40
2019,03,30,12,36,11.40
2019,03,30,12,37,11.40
2019,03,30,12,38,11.30
2019,03,30,12,39,11.20
2019,03,30,12,40,11.20
2019,03,30,12,41,11.30
2019,03,30,12,42,11.30
2019,03,30,12,43,11.30
2019,03,30,12,44,11.40
2019,03,30,12,45,11.40
2019,03,30,12,46,11.40
2019,03,30,12,47,11.50
2019,03,30,12,48,11.60
2019,03,30,12,49,11.70
2019,03,30,12,50,11.70
2019,03,30,12,51,11.70
2019,03,30,12,52,11.70
2019,03,30,12,53,11.70
2019,03,30,12,54,11.70
2019,03,30,12,55,11.80
2019,03,30,12,56,11.90
2019,03,30,12,57,12.00
2019,03,30,12,58,12.00
2019,03,30,12,59,12.00
2019,03,30,13,00,12.00
2019,03,30,13,01,12.10
2019,03,30,13,02,12.10
2019,03,30,13,03,12.20
2019,03,30,13,04,12.20
2019,03,30,13,05,12.30
2019,03,30,13,06,12.30
2019,03,30,13,07,12.30
2019,03,30,13,08,12.30
2019,03,30,13,09,12.30
2019,03,30,13,10,12.40
2019,03,30,13,11,12.50
2019,03,30,13,12,12.60
2019,03,30,13,13,12.70
2019,03,30,13,14,12.80
2019,03,30,13,15,12.80
2019,03,30,13,16,12.80
2019,03,30,13,17,12.80
2019,03,30,13,18,12.80
2019,03,30,13,19,12.80
2019,03,30,13,20,12.70
2019,03,30,13,21,12.70
2019,03,30,13,22,12.70
2019,03,30,13,23,12.80
2019,03,30,13,24,12.80
2019,03,30,13,25,12.80
2019,03,30,13,26,12.80
2019,03,30,13,27,12.80
2019,03,30,13,28,12.70
2019,03,30,13,29,12.70
2019,03,30,13,30,12.70
2019,03,30,13,31,12.80
2019,03,30,13,32,12.90
2019,03,30,13,33,12.90
2019,03,30,13,34,12.80
2019,03,30,13,35,12.70
2019,03,30,13,36,12.70
2019,03,30,13,37,12.60
2019,03,30,13,38,12.60
2019,03,30,13,39,12.60
2019,03,30,13,40,12.50
2019,03,30,13,41,12.50
2019,03,30,13,42,12.50
2019,03,30,13,43,12.60
2019,03,30,13,44,12.60
2019,03,30,13,45,12.50
2019,03,30,13,46,12.50
2019,03,30,13,47,12.40
2019,03,30,13,48,12.30
2019,03,30,13,49,12.30
2019,03,30,13,50,12.40
2019,03,30,13,51,12.40
2019,03,30,13,52,12.40
2019,03,30,13,53,12.50
2019,03,30,13,54,12.50
2019,03,30,13,55,12.60
2019,03,30,13,56,12.60
2019,03,30,13,57,12.50
2019,03,30,13,58,12.50
2019,03,30,13,59,12.60
2019,03,30,14,00,12.70
2019,03,30,14,01,12.60
2019,03,30,14,02,12.60
2019,03,30,14,03,12.70
2019,03,30,14,04,12.80
2019,03,30,14,05,12.70
2019,03,30,14,06,12.70
2019,03,30,14,07,12.60
2019,03,30,14,08,12.50
2019,03,30,14,09,12.40
2019,03,30,14,10,12.40
2019,03,30,14,11,12.30
2019,03,30,14,12,12.20
2019,03,30,14,13,12.20
2019,03,30,14,14,12.30
2019,03,30,14,15,12.30
2019,03,30,14,16,12.40
2019,03,30,14,17,12.50
2019,03,30,14,18,12.50
2019,03,30,14,19,12.60
2019,03,30,14,20,12.60
2019,03,30,14,21,12.60
2019,03,30,14,22,12.60
2019,03,30,14,23,12.70
2019,03,30,14,24,12.70
2019,03,30,14,25,12.70
2019,03,30,14,26,12.70
2019,03,30,14,27,12.70
2019,03,30,14,28,12.80
2019,03,30,14,29,12.90
2019,03,30,14,30,12.90
2019,03,30,14,31,12.90
2019,03,30,14,32,12.90
2019,03,30,14,33,12.90
2019,03,30,14,34,12.90
2019,03,30,14,35,12.90
2019,03,30,14,36,12.70
2019,03,30,14,37,12.60
2019,03,30,14,38,12.60
2019,03,30,14,39,12.60
2019,03,30,14,40,12.70
2019,03,30,14,41,12.70
2019,03,30,14,42,12.70
2019,03,30,14,43,12.60
2019,03,30,14,44,12.70
2019,03,30,14,45,12.70
2019,03,30,14,46,12.80
2019,03,30,14,47,12.70
2019,03,30,14,48,12.70
2019,03,30,14,49,12.50
2019,03,30,14,50,12.50
2019,03,30,14,51,12.50
2019,03,30,14,52,12.50
2019,03,30,14,53,12.50
2019,03,30,14,54,12.60
2019,03,30,14,55,12.60
2019,03,30,14,56,12.60
2019,03,30,14,57,12.70
2019,03,30,14,58,12.70
2019,03,30,14,59,12.70
2019,03,30,15,00,12.80
2019,03,30,15,01,12.70
2019,03,30,15,02,12.70
2019,03,30,15,03,12.70
2019,03,30,15,04,12.70
2019,03,30,15,05,12.60
2019,03,30,15,06,12.60
2019,03,30,15,07,12.70
2019,03,30,15,08,12.70
2019,03,30,15,09,12.70
2019,03,30,15,10,12.70
2019,03,30,15,11,12.70
2019,03,30,15,12,12.70
2019,03,30,15,13,12.70
2019,03,30,15,14,12.60
2019,03,30,15,15,12.60
2019,03,30,15,16,12.60
2019,03,30,15,17,12.60
2019,03,30,15,18,12.70
2019,03,30,15,19,12.70
2019,03,30,15,20,12.80
2019,03,30,15,21,12.80
2019,03,30,15,22,12.90
2019,03,30,15,23,12.90
2019,03,30,15,24,13.00
2019,03,30,15,25,13.00
2019,03,30,15,26,13.10
2019,03,30,15,27,13.20
2019,03,30,15,28,13.20
2019,03,30,15,29,13.30
2019,03,30,15,30,13.30
2019,03,30,15,31,13.30
2019,03,30,15,32,13.30
2019,03,30,15,33,13.30
2019,03,30,15,34,13.30
2019,03,30,15,35,13.30
2019,03,30,15,36,13.30
2019,03,30,15,37,13.30
2019,03,30,15,38,13.40
2019,03,30,15,39,13.40
2019,03,30,15,40,13.40
2019,03,30,15,41,13.40
2019,03,30,15,42,13.40
2019,03,30,15,43,13.30
2019,03,30,15,44,13.30
2019,03,30,15,45,13.30
2019,03,30,15,46,13.30
2019,03,30,15,47,13.30
2019,03,30,15,48,13.30
2019,03,30,15,49,13.30
2019,03,30,15,50,13.30
2019,03,30,15,51,13.30
2019,03,30,15,52,13.30
2019,03,30,15,53,13.40
2019,03,30,15,54,13.60
2019,03,30,15,55,13.70
2019,03,30,15,56,13.70
2019,03,30,15,57,13.80
2019,03,30,15,58,13.70
2019,03,30,15,59,13.50
2019,03,30,16,00,13.50
2019,03,30,16,01,13.40
2019,03,30,16,02,13.50
2019,03,30,16,03,13.60
2019,03,30,16,04,13.60
2019,03,30,16,05,13.70
2019,03,30,16,06,13.70
2019,03,30,16,07,13.70
2019,03,30,16,08,13.60
2019,03,30,16,09,13.50
2019,03,30,16,10,13.50
2019,03,30,16,11,13.40
2019,03,30,16,12,13.40
2019,03,30,16,13,13.40
2019,03,30,16,14,13.40
2019,03,30,16,15,13.40
2019,03,30,16,16,13.40
2019,03,30,16,17,13.50
2019,03,30,16,18,13.50
2019,03,30,16,19,13.60
2019,03,30,16,20,13.60
2019,03,30,16,21,13.60
2019,03,30,16,22,13.50
2019,03,30,16,23,13.40
2019,03,30,16,24,13.30
2019,03,30,16,25,13.30
2019,03,30,16,26,13.40
2019,03,30,16,27,13.40
2019,03,30,16,28,13.40
2019,03,30,16,29,13.40
2019,03,30,16,30,13.50
2019,03,30,16,31,13.50
2019,03,30,16,32,13.60
2019,03,30,16,33,13.60
2019,03,30,16,34,13.70
2019,03,30,16,35,13.70
2019,03,30,16,36,13.70
2019,03,30,16,37,13.70
2019,03,30,16,38,13.80
2019,03,30,16,39,13.70
2019,03,30,16,40,13.80
2019,03,30,16,41,13.80
2019,03,30,16,42,13.80
2019,03,30,16,43,13.80
2019,03,30,16,44,13.80
2019,03,30,16,45,13.80
2019,03,30,16,46,13.90
2019,03,30,16,47,13.90
2019,03,30,16,48,14.00
2019,03,30,16,49,14.00
2019,03,30,16,50,14.10
2019,03,30,16,51,14.10
2019,03,30,16,52,14.10
2019,03,30,16,53,14.10
2019,03,30,16,54,14.00
2019,03,30,16,55,14.10
2019,03,30,16,56,14.00
2019,03,30,16,57,14.00
2019,03,30,16,58,14.00
2019,03,30,16,59,14.10
2019,03,30,17,00,14.10
2019,03,30,17,01,14.10
2019,03,30,17,02,14.20
2019,03,30,17,03,14.20
2019,03,30,17,04,14.30
2019,03,30,17,05,14.40
2019,03,30,17,06,14.50
2019,03,30,17,07,14.50
2019,03,30,17,08,14.60
2019,03,30,17,09,14.60
2019,03,30,17,10,14.70
2019,03,30,17,11,14.70
2019,03,30,17,12,14.70
2019,03,30,17,13,14.70
2019,03,30,17,14,14.70
2019,03,30,17,15,14.70
2019,03,30,17,16,14.70
2019,03,30,17,17,14.80
2019,03,30,17,18,14.80
2019,03,30,17,19,14.80
2019,03,30,17,20,14.70
2019,03,30,17,21,14.70
2019,03,30,17,22,14.70
2019,03,30,17,23,14.80
2019,03,30,17,24,14.80
2019,03,30,17,25,14.70
2019,03,30,17,26,14.70
2019,03,30,17,27,14.70
2019,03,30,17,28,14.70
2019,03,30,17,29,14.70
2019,03,30,17,30,14.70
2019,03,30,17,31,14.80
2019,03,30,17,32,14.80
2019,03,30,17,33,14.80
2019,03,30,17,34,14.80
2019,03,30,17,35,14.80
2019,03,30,17,36,14.80
2019,03,30,17,37,14.80
2019,03,30,17,38,14.80
2019,03,30,17,39,14.80
2019,03,30,17,40,14.70
2019,03,30,17,41,14.70
2019,03,30,17,42,14.70
2019,03,30,17,43,14.70
2019,03,30,17,44,14.70